Lafayette, IN

10:56 PM EDT on September 27, 2016 (GMT -0400)
Purdue Univ

Weather History for KLAF - February, 2012

Change the Weather History Date:

Monday, February 27, 2012

  Actual Average Record
Temperature  
Mean Temperature 36 °F 34 °F  
Max Temperature 46 °F 43 °F 70 °F (1976)
Min Temperature 26 °F 26 °F -6 °F (1993)
Degree Days  
Heating Degree Days 29 31  
Month to date heating degree days 826 934  
Since 1 July heating degree days 3626 4302  
Cooling Degree Days 0 0  
Month to date cooling degree days 0 0  
Year to date cooling degree days 0 0  
Moisture  
Dew Point 22 °F    
Average Humidity 59    
Maximum Humidity 81    
Minimum Humidity 37    
Precipitation  
Precipitation 0.00 in 0.07 in 1.64 in (1999)
Month to date precipitation 0.95 1.68  
Year to date precipitation 3.26 3.54  
Sea Level Pressure  
Sea Level Pressure 30.34 in    
Wind  
Wind Speed 9 mph (WNW)    
Max Wind Speed 24 mph    
Max Gust Speed 31 mph    
Visibility 10 miles    
Events      
T = Trace of Precipitation, MM = Missing Value Source: NWS Daily Summary

Daily Weather History Graph

Daily Weather History Graph

Search for Another Location

Airport or City:

Trip Planner

Search our weather history database for the weather conditions in past years. The results will help you decide how hot, cold, wet, or windy it might be!

Date:

Astronomy

Feb. 27, 2012 Rise Set
Actual Time 7:25 AM EST 6:36 PM EST
Civil Twilight 6:57 AM EST 7:03 PM EST
Nautical Twilight 6:26 AM EST 7:35 PM EST
Astronomical Twilight 5:54 AM EST 8:07 PM EST
Moon 9:52 AM EST (2/27) No Moon Set
Length of Visible Light 12h 06m
Length of Day
11h 11m
Waxing Crescent, 29% of the Moon is Illuminated
Feb 27
Waxing Crescent
Feb 29
First Quarter
Mar 8
Full
Mar 14
Last Quarter
Mar 22
New

Hourly Weather History & Observations

Time (EST) Temp. Windchill Dew Point Humidity Pressure Visibility Wind Dir Wind Speed Gust Speed Precip Events Conditions
12:54 AM 44.1 °F 39.5 °F 24.1 °F 45% 30.12 in 10.0 mi SW 8.1 mph - N/A   Scattered Clouds
1:54 AM 44.1 °F 41.5 °F 25.0 °F 47% 30.12 in 10.0 mi SW 4.6 mph - N/A   Partly Cloudy
2:54 AM 45.0 °F 40.6 °F 28.0 °F 52% 30.16 in 10.0 mi West 8.1 mph - N/A   Overcast
3:54 AM 44.1 °F 39.5 °F 28.9 °F 55% 30.17 in 10.0 mi WNW 8.1 mph - N/A   Overcast
4:54 AM 43.0 °F - 27.0 °F 53% 30.19 in 10.0 mi Calm Calm - N/A   Overcast
5:54 AM 39.9 °F 37.8 °F 23.0 °F 51% 30.22 in 10.0 mi WNW 3.5 mph - N/A   Scattered Clouds
6:54 AM 37.0 °F 31.6 °F 23.0 °F 57% 30.25 in 10.0 mi WNW 6.9 mph - N/A   Clear
7:54 AM 35.1 °F 30.1 °F 21.9 °F 59% 30.26 in 10.0 mi West 5.8 mph - N/A   Clear
8:54 AM 37.9 °F 30.5 °F 21.0 °F 51% 30.29 in 10.0 mi West 11.5 mph - N/A   Clear
9:54 AM 39.0 °F 29.3 °F 19.0 °F 45% 30.32 in 10.0 mi WNW 19.6 mph 26.5 mph N/A   Clear
10:54 AM 39.9 °F 30.8 °F 21.0 °F 47% 30.35 in 10.0 mi NW 18.4 mph 28.8 mph N/A   Clear
11:54 AM 41.0 °F 31.9 °F 19.9 °F 43% 30.38 in 10.0 mi WNW 19.6 mph 26.5 mph N/A   Clear
12:54 PM 42.1 °F 32.6 °F 19.0 °F 40% 30.38 in 10.0 mi WNW 23.0 mph 28.8 mph N/A   Clear
1:54 PM 44.1 °F 36.2 °F 19.0 °F 37% 30.38 in 10.0 mi WNW 18.4 mph 28.8 mph N/A   Clear
2:54 PM 44.1 °F 38.1 °F 19.9 °F 38% 30.38 in 10.0 mi WNW 11.5 mph 24.2 mph N/A   Clear
3:54 PM 44.1 °F 36.8 °F 21.0 °F 40% 30.39 in 10.0 mi WNW 16.1 mph 23.0 mph N/A   Clear
4:54 PM 43.0 °F 36.8 °F 19.9 °F 40% 30.42 in 10.0 mi NW 11.5 mph 21.9 mph N/A   Clear
5:54 PM 41.0 °F 34.7 °F 19.9 °F 43% 30.44 in 10.0 mi NW 10.4 mph - N/A   Clear
6:54 PM 36.0 °F 31.1 °F 21.0 °F 55% 30.46 in 10.0 mi NNW 5.8 mph - N/A   Clear
7:54 PM 34.0 °F 28.8 °F 21.0 °F 59% 30.48 in 10.0 mi North 5.8 mph - N/A   Clear
8:54 PM 32.0 °F 28.7 °F 21.9 °F 66% 30.48 in 10.0 mi North 3.5 mph - N/A   Clear
9:54 PM 28.9 °F - 21.9 °F 75% 30.50 in 10.0 mi Calm Calm - N/A   Clear
10:54 PM 27.0 °F 23.0 °F 21.0 °F 78% 30.51 in 10.0 mi NE 3.5 mph - N/A   Clear
11:54 PM 26.1 °F - 21.0 °F 81% 30.50 in 10.0 mi Calm Calm - N/A   Clear